| time (UTC) | temp F | wind direction | speed knots | gust knots | rain 1hr in | rain 24hr in | rain mn in | humidity % | barometer mb |
| 20260505124605 | 47 | 34 | 6.1 | 11.3 | 0.00 | 0.00 | 0.00 | 71 | 1004.5 |
| 20260505123113 | 47 | 61 | 7.0 | 12.2 | 0.00 | 0.00 | 0.00 | 70 | 1004.3 |
| 20260505121554 | 47 | 46 | 5.2 | 9.6 | 0.00 | 0.00 | 0.00 | 71 | 1004.0 |
| 20260505120056 | 47 | 59 | 4.3 | 8.7 | 0.00 | 0.00 | 0.00 | 70 | 1003.8 |
| 20260505114551 | 47 | 53 | 3.5 | 7.8 | 0.00 | 0.00 | 0.00 | 69 | 1003.6 |
| 20260505113051 | 47 | 57 | 3.5 | 7.8 | 0.00 | 0.00 | 0.00 | 68 | 1003.6 |
| 20260505111544 | 48 | 49 | 3.5 | 6.1 | 0.00 | 0.00 | 0.00 | 66 | 1003.1 |
| 20260505101536 | 49 | 38 | 3.5 | 6.1 | 0.00 | 0.00 | 0.00 | 66 | 1003.4 |
| 20260505100033 | 49 | 45 | 2.6 | 5.2 | 0.00 | 0.00 | 0.00 | 65 | 1003.4 |
| 20260505094531 | 50 | 45 | 2.6 | 5.2 | 0.00 | 0.00 | 0.00 | 64 | 1003.2 |
| 20260505093030 | 50 | 37 | 1.7 | 4.3 | 0.00 | 0.00 | 0.00 | 64 | 1003.6 |
| 20260505091530 | 50 | 37 | 1.7 | 3.5 | 0.00 | 0.00 | 0.00 | 64 | 1003.4 |
| 20260505090025 | 51 | 9 | 1.7 | 4.3 | 0.00 | 0.00 | 0.00 | 64 | 1003.3 |
| 20260505084535 | 51 | 1 | 0.0 | 5.2 | 0.00 | 0.00 | 0.00 | 63 | 1003.3 |
| 20260505083039 | 52 | 15 | 1.7 | 4.3 | 0.00 | 0.00 | 0.00 | 62 | 1003.4 |
| 20260505081523 | 52 | 27 | 2.6 | 4.3 | 0.00 | 0.00 | 0.00 | 62 | 1003.4 |
| 20260505080033 | 53 | 11 | 1.7 | 8.7 | 0.00 | 0.00 | 0.00 | 61 | 1003.5 |
| 20260505074518 | 53 | 356 | 0.0 | 0.0 | 0.00 | 0.00 | 0.00 | 59 | 1003.3 |
| 20260505073024 | 53 | 32 | 0.0 | 3.5 | 0.00 | 0.00 | 0.00 | 58 | 1003.4 |
| 20260505071510 | 54 | 22 | 3.5 | 7.8 | 0.00 | 0.00 | 0.00 | 57 | 1002.9 |
| 20260505070008 | 54 | 20 | 4.3 | 10.4 | 0.00 | 0.00 | 0.00 | 56 | 1002.8 |
| 20260505064506 | 55 | 29 | 7.8 | 13.0 | 0.00 | 0.00 | 0.00 | 55 | 1002.1 |
| 20260505063004 | 55 | 338 | 7.8 | 11.3 | 0.00 | 0.00 | 0.00 | 54 | 1002.7 |
| 20260505061501 | 55 | 356 | 9.6 | 13.9 | 0.00 | 0.00 | 0.00 | 54 | 1002.3 |
| 20260505060103 | 55 | 1 | 9.6 | 15.6 | 0.00 | 0.00 | 0.00 | 54 | 1002.5 |
| 20260505054601 | 55 | 11 | 8.7 | 14.8 | 0.00 | 0.00 | 0.00 | 55 | 1002.6 |
| 20260505053100 | 56 | 9 | 4.3 | 12.2 | 0.00 | 0.00 | 0.00 | 55 | 1002.2 |
| 20260505051557 | 56 | 24 | 3.5 | 7.8 | 0.00 | 0.00 | 0.00 | 56 | 1002.2 |
| 20260505041602 | 56 | 12 | 7.8 | 13.9 | 0.00 | 0.00 | 0.00 | 53 | 1002.0 |
| 20260505040057 | 57 | 13 | 9.6 | 21.7 | 0.00 | 0.00 | 0.00 | 53 | 1001.8 |
| 20260505034554 | 58 | 12 | 10.4 | 18.2 | 0.00 | 0.00 | 0.00 | 48 | 1001.6 |
| 20260505033054 | 57 | 16 | 10.4 | 23.5 | 0.00 | 0.00 | 0.00 | 50 | 1000.4 |
| 20260505031554 | 58 | 1 | 15.6 | 20.9 | 0.00 | 0.00 | 0.00 | 49 | 1000.0 |
| 20260505030110 | 58 | 11 | 15.6 | 28.7 | 0.00 | 0.00 | 0.00 | 50 | 999.4 |
| 20260505024558 | 59 | 351 | 13.9 | 25.2 | 0.00 | 0.00 | 0.00 | 47 | 999.3 |
| 20260505023052 | 60 | 38 | 15.6 | 26.9 | 0.00 | 0.00 | 0.00 | 43 | 998.4 |
| 20260505021552 | 61 | 25 | 15.6 | 27.8 | 0.00 | 0.00 | 0.00 | 42 | 997.9 |
| 20260505020050 | 63 | 342 | 17.4 | 26.9 | 0.00 | 0.00 | 0.00 | 36 | 998.0 |
| 20260505014603 | 65 | 340 | 11.3 | 21.7 | 0.00 | 0.00 | 0.00 | 33 | 997.5 |
| 20260505013052 | 65 | 1 | 10.4 | 19.1 | 0.00 | 0.00 | 0.00 | 34 | 997.1 |
| 20260505011550 | 65 | 1 | 12.2 | 19.1 | 0.00 | 0.00 | 0.00 | 33 | 997.0 |
| 20260505010055 | 67 | 1 | 10.4 | 18.2 | 0.00 | 0.00 | 0.00 | 28 | 996.3 |
| 20260505004550 | 68 | 11 | 9.6 | 17.4 | 0.00 | 0.00 | 0.00 | 28 | 996.3 |
| 20260505003056 | 68 | 7 | 7.8 | 18.2 | 0.00 | 0.00 | 0.00 | 27 | 996.3 |
| 20260505001546 | 69 | 7 | 8.7 | 17.4 | 0.00 | 0.00 | 0.00 | 26 | 996.4 |
| 20260505000051 | 70 | 10 | 7.0 | 11.3 | 0.00 | 0.00 | 0.00 | 25 | 996.3 |
| 20260504234546 | 71 | 1 | 7.8 | 14.8 | 0.00 | 0.00 | 0.00 | 24 | 996.2 |
| 20260504233047 | 74 | 277 | 6.1 | 10.4 | 0.00 | 0.00 | 0.00 | 19 | 996.3 |
| 20260504231544 | 74 | 309 | 4.3 | 15.6 | 0.00 | 0.00 | 0.00 | 19 | 996.1 |
| 20260504230044 | 74 | 249 | 4.3 | 12.2 | 0.00 | 0.00 | 0.00 | 19 | 996.0 |
| 20260504224543 | 74 | 254 | 6.1 | 14.8 | 0.00 | 0.00 | 0.00 | 18 | 996.0 |
| 20260504223058 | 75 | 351 | 5.2 | 14.8 | 0.00 | 0.00 | 0.00 | 17 | 995.9 |
| 20260504221541 | 74 | 259 | 7.0 | 15.6 | 0.00 | 0.00 | 0.00 | 18 | 996.1 |
| 20260504220039 | 74 | 257 | 4.3 | 17.4 | 0.00 | 0.00 | 0.00 | 18 | 996.4 |
| 20260504214539 | 74 | 210 | 5.2 | 14.8 | 0.00 | 0.00 | 0.00 | 18 | 996.4 |
| 20260504213037 | 74 | 304 | 8.7 | 19.1 | 0.00 | 0.00 | 0.00 | 19 | 996.6 |
| 20260504211551 | 75 | 236 | 4.3 | 16.5 | 0.00 | 0.00 | 0.00 | 21 | 997.0 |
| 20260504210038 | 74 | 262 | 6.1 | 22.6 | 0.00 | 0.00 | 0.00 | 22 | 997.1 |
| 20260504204533 | 75 | 250 | 7.0 | 19.1 | 0.00 | 0.00 | 0.00 | 20 | 997.3 |
| 20260504203032 | 74 | 242 | 8.7 | 21.7 | 0.00 | 0.00 | 0.00 | 20 | 997.4 |
| 20260504201531 | 75 | 265 | 7.8 | 19.1 | 0.00 | 0.00 | 0.00 | 20 | 997.6 |
| 20260504200031 | 76 | 271 | 5.2 | 19.1 | 0.00 | 0.00 | 0.00 | 19 | 997.6 |
| 20260504194529 | 76 | 231 | 5.2 | 13.9 | 0.00 | 0.00 | 0.00 | 16 | 997.5 |
| 20260504193027 | 76 | 266 | 5.2 | 12.2 | 0.00 | 0.00 | 0.00 | 16 | 997.7 |
| 20260504191527 | 75 | 269 | 5.2 | 17.4 | 0.00 | 0.00 | 0.00 | 16 | 997.9 |
| 20260504190023 | 75 | 231 | 7.0 | 18.2 | 0.00 | 0.00 | 0.00 | 17 | 998.0 |
| 20260504184533 | 75 | 249 | 8.7 | 13.9 | 0.00 | 0.00 | 0.00 | 15 | 998.1 |
| 20260504183020 | 75 | 284 | 4.3 | 13.0 | 0.00 | 0.00 | 0.00 | 17 | 998.5 |
| 20260504181517 | 74 | 284 | 7.8 | 15.6 | 0.00 | 0.00 | 0.00 | 18 | 998.6 |
| 20260504180015 | 74 | 244 | 6.1 | 18.2 | 0.00 | 0.00 | 0.00 | 19 | 998.5 |
| 20260504174514 | 73 | 234 | 7.8 | 18.2 | 0.00 | 0.00 | 0.00 | 20 | 998.6 |
| 20260504173011 | 72 | 257 | 3.5 | 10.4 | 0.00 | 0.00 | 0.00 | 22 | 999.2 |
| 20260504171509 | 72 | 280 | 4.3 | 14.8 | 0.00 | 0.00 | 0.00 | 22 | 999.6 |